Regional Weather Roundup
Issued by NWS

Home | Current Version | Previous Version | Text Only | Print | Product List | Glossary Off
Versions: 1 2 3 4 5 6 7 8 9 10 11 12 13 14 15 16 17 18 19 20 21 22 23 24 25 26 27 28 29 30 31 32 33 34 35 36 37 38 39 40 41 42 43 44 45 46 47 48 49 50

000
ASUS45 KBOU 172210
RWRCO

WEATHER ROUNDUP FOR COLORADO
NATIONAL WEATHER SERVICE DENVER/BOULDER CO
300 PM MST SAT FEB 17 2018

NOTE: "FAIR" INDICATES FEW OR NO CLOUDS BELOW 12000 FEET WITH NO
SIGNIFICANT WEATHER AND/OR OBSTRUCTIONS TO VISIBILITY.

COZ001>005-013-030-031-172300-
...NORTHWEST COLORADO...

CITY           SKY/WX    TMP DP  RH WIND       PRES   REMARKS
CRAIG          FAIR      41  16  36 SW17G24   30.04F
HAYDEN         FAIR      39  15  37 SE5       30.07F
MEEKER         FAIR      45  15  30 SW17G23   30.06F
RANGELY        FAIR      50  11  21 W7        30.03F
RABBIT EARS PA FAIR      27  16  63 SW8G22    30.04S WCI  18
STEAMBOAT SPGS FAIR      35  11  36 CALM      30.05F
WALDEN         FAIR      37   5  25 S12G20    30.02S
$$

COZ006>008-011-172300-
...WEST CENTRAL VALLEYS...

CITY           SKY/WX    TMP DP  RH WIND       PRES   REMARKS
GRAND JUNCTION FAIR      49  21  33 VRB5      30.12F
MONTROSE       FAIR      50  14  23 VRB5      30.13F
EAGLE          FAIR      43  16  33 W10G24    30.10F
RIFLE          FAIR      42  14  32 CALM      30.11F
DELTA          FAIR      55   8  15 CALM      30.12F
NUCLA          FAIR      50  14  23 N3        30.16F
$$

COZ017>023-064>068-172300-
...SOUTHWEST COLORADO...

CITY           SKY/WX    TMP DP  RH WIND       PRES   REMARKS
DURANGO        FAIR      49  19  30 SW14G21   30.15F
CORTEZ         FAIR      52  17  25 S13       30.16F
PAGOSA SPRINGS FAIR      44  12  27 CALM      30.19S
TELLURIDE      FAIR      40  -6  13 NW5       30.19F
WOLF CREEK PAS   N/A     19  19 100 SW13      30.26F WCI   7
$$

COZ009-010-012-014-032>034-037-058>063-172300-
...CENTRAL COLORADO...

CITY           SKY/WX    TMP DP  RH WIND       PRES   REMARKS
ASPEN          FAIR      40  11  30 NW3       30.09F
BUENA VISTA    FAIR      46  -1  14 SW13G29   30.05F
COPPER MTN     FAIR      28   5  37 SW5       30.10S WCI  23
BERTHOUD PASS  FAIR      19   9  63 NW32G49   30.03R WCI   0
COTTONWOOD PAS FAIR      41   1  19 W10G29    30.08S
GUNNISON       FAIR      43   2  18 SW12      30.12F
GRANBY         FAIR      36  10  33 W10       30.06F
KREMMLING      FAIR      45  10  24 SW18G24   30.05F
LEADVILLE      FAIR      32   6  33 N13       30.08F WCI  22
MONARCH PASS   FAIR      23   7  50 W31G41    30.24F WCI   5
SALIDA         FAIR      49   3  15 W23       30.14S
SUNLIGHT       FAIR      25  18  74 SW16G26     N/A  WCI  12
WILKERSON PASS FAIR      34  -4  19 SW16G28   30.11F WCI  23
$$

COZ069>075-172300-
...SAN LUIS VALLEY/SANGRE DE CRISTO MOUNTAINS...

CITY           SKY/WX    TMP DP  RH WIND       PRES   REMARKS
ALAMOSA        FAIR      48   7  18 E3        30.11F
DEL NORTE      FAIR      47  10  22 E9        30.12S
LA VETA PASS   FAIR      39   5  24 S23G39    30.23F
SAGUACHE       FAIR      48  -6  10 NW18G28   30.10F
$$

COZ035-036-038>040-172300-
...NORTHERN COLORADO FRONT RANGE...

CITY           SKY/WX    TMP DP  RH WIND       PRES   REMARKS
DENVER INTL AP FAIR      55  10  16 S15       29.94F
AURORA         NOT AVBL
FRONT RANGE AP MOSUNNY   55  10  16 S12G23    29.96F
ERIE MUNI ARPT FAIR      57  -2   9 W12       29.98F
BOULDER MUN AP FAIR      55   5  13 W13G18    29.91F
CENTENNIAL     FAIR      53  11  18 S9        29.95F
BROOMFIELD     MOSUNNY   57   1  10 W16G25    29.94F
FORT COLLINS   FAIR      56  10  16 SE17      29.90F
LONGMONT       FAIR      58   5  12 SW14G21   29.92F
$$

COZ041-046-047-076>085-087-088-172300-
...PIKES PEAK/PALMER DIVIDE AND SOUTHERN FOOTHILLS...

CITY           SKY/WX    TMP DP  RH WIND       PRES   REMARKS
COLO. SPRINGS  FAIR      48  14  25 S20       30.02F
A. F. ACADEMY  FAIR      48  11  22 S18       29.99F
SCHRIEVER AFB  NOT AVBL
CHEYENNE MTN   FAIR      44  12  27 S16G30    29.95F
ELLICOTT         N/A    N/A N/A N/A S16G24    30.01F
FALCON         FAIR      46   8  21 S18G26    30.03F
FORT CARSON    FAIR      51  13  21 S18       30.00F
LIMON          FAIR      51   8  17 S16G25    30.01F
MONUMENT HILL  FAIR      43  14  31 S16       30.01F
CANON CITY     SUNNY     57  16  19 E9        29.99F
WALSENBURG     NOT AVBL
TRINIDAD       FAIR      61  11  14 S13G22    30.00F
$$

COZ042>045-048>051-090-091-172300-
...NORTHEAST COLORADO...

CITY           SKY/WX    TMP DP  RH WIND       PRES   REMARKS
GREELEY ARPT   FAIR      55  10  16 S15       29.93F
AKRON          FAIR      49  14  24 S9        29.99F
BURLINGTON     FAIR      52  11  19 W9        30.05F
WRAY           FAIR      54   9  16 NW6G16    30.01F
YUMA           NOT AVBL
STERLING       FAIR      52  14  22 SW22      29.94F
HOLYOKE        FAIR      54  10  17 NW5       30.00F
FORT MORGAN    FAIR      53   5  14 SW13      29.97F
$$

COZ086-089-092>099-172300-
...SOUTHEAST COLORADO...

CITY           SKY/WX    TMP DP  RH WIND       PRES   REMARKS
PUEBLO         FAIR      58  16  19 SE20G25   29.99F
LA JUNTA       FAIR      58  11  15 SE16      30.03F
LAMAR          FAIR      58   9  14 S8        30.06F
SPRINGFIELD      N/A     54   9  16 SE12G17   30.10S
$$



USA.gov is the U.S. government's official web portal to all federal, state and local government web resources and services.